User: anonymous   Login
Location: Unspecified
(0.0000°N, 0.0000°E)
Time: 13:25:29
(UTC+00:00)
Language:

Oscar 14 - Orbit

View from above orbital plane
View from above orbital plane
View from above satellite
View from above satellite

Ground track
Ground track

The orbit data is extracted from the following two-line orbital elements,

1 20437U 90005B   21015.69088797 -.00000007  00000-0  14447-4 0  9995
2 20437  98.8383 351.5820 0009690 298.3555 235.1059 14.32364040618289
Epoch (UTC): 15 January 2021 16:34:52
Eccentricity: 0.0009690
inclination: 98.8383°
perigee height: 777 km
apogee height: 791 km
right ascension of ascending node: 351.5820°
argument of perigee: 298.3555°
revolutions per day: 14.32364040
mean anomaly at epoch: 235.1059°
orbit number at epoch: 61828

The dashed part of the orbit path shows where the satellite is in the earth's shadow,  

DLR